Skip Page Navigation
NASA JPL Caltech
NASA Logo - Jet Propulsion Laboratory + View the NASA Portal
+ Center for Near-Earth Object Studies
JPL Home Earth Solar System Stars & Galaxies Technology
JPL Solar System Dynamics
BODIES ORBITS EPHEMERIDES TOOLS PHYSICAL DATA DISCOVERY FAQ SITE MAP
IMPORTANT: The SSD Announcement email list is now available. Major changes are coming in the near future, including possible hostname and/or URL changes. To be notified of such changes, subscribe to this email list.

Please visit this page for more details.


JPL Small-Body Database Browser
Search: [ help ]  
117775 (2005 GX101)
Classification: Main-belt Asteroid          SPK-ID: 2117775
Ephemeris | Orbit Diagram | Orbital Elements | Mission Design | Physical Parameters | Discovery Circumstances ]

[ show orbit diagram ]
Orbital Elements at Epoch 2458600.5 (2019-Apr-27.0) TDB
Reference: JPL 21 (heliocentric ecliptic J2000)
 Element Value Uncertainty (1-sigma)   Units 
e .2095500051046751 4.5133e-08  
a 2.460559477937526 1.3842e-08 au
q 1.944949226775361 1.0743e-07 au
i 5.545555300113797 5.3922e-06 deg
node 44.59772174261268 4.0082e-05 deg
peri 294.0918377195432 4.3037e-05 deg
M 109.8549453458641 1.9431e-05 deg
tp 2458170.304028001268
(2018-Feb-20.80402800)
7.3338e-05 TDB
period 1409.773127936604
3.86
1.1896e-05
3.257e-08
d
yr
n .2553602369530971 2.1549e-09 deg/d
Q 2.976169729099691 1.6743e-08 au
  Orbit Determination Parameters
   # obs. used (total)      789  
   data-arc span      7560 days (20.70 yr)  
   first obs. used      1998-06-24  
   last obs. used      2019-03-06  
   planetary ephem.      DE431  
   SB-pert. ephem.      SB431-N16  
   condition code      0  
   norm. resid. RMS      .58597  
   source      ORB  
   producer      Otto Matic  
   solution date      2019-Jul-14 03:11:15  

Additional Information
 Earth MOID = .943479 au 
 Jupiter MOID = 2.43304 au 
 T_jup = 3.453 
[ show covariance matrix ]

Ephemeris | Orbit Diagram | Orbital Elements | Mission Design | Physical Parameters | Discovery Circumstances ]

Physical Parameter Table
Parameter Symbol Value Units Sigma Reference Notes
absolute magnitude H 15.6   n/a MPO320351  

117775 (2005 GX101)          Discovered 2005-Apr-09 by LINEAR at Socorro
Reference: 20051019/Numbers.arcLast Updated: 2005-10-26
Ephemeris | Orbit Diagram | Orbital Elements | Mission Design | Physical Parameters | Discovery Circumstances ]
ABOUT SSD CREDITS/AWARDS PRIVACY/COPYRIGHT GLOSSARY LINKS
FirstGov 2019-Dec-16 14:08 UT
(server date/time)  
NASA Home Page
Site Manager:   Ryan S. Park
Webmaster  Alan B. Chamberlin